Find Starlink 38105

NORAD ID: 100446 Int'l Des: 2026-193 Owner: SPXS Country: US Constellation: starlink operational

Current View

Loading 3D Globe...

About Starlink 38105

Starlink 38105 (NORAD 100446) is a starlink constellation satellite launched Aug 22, 2026 by SPXS of US. with a mass of 575.00 kg.

Upcoming Passes

Passes for default location (London). Set your location on the main map for personalized predictions.

Altitude History

Loading altitude history...

Two-Line Element Set

1 A0446U 26193P 26262.92204032 .00015770 00000-0 26657-3 0 9994
2 A0446 70.0003 76.3725 0003346 270.3467 89.7336 15.51661875 5647
Epoch: Sep 19, 2026 • Age: 19 hours

Current Status

Altitude 422.2 km
Apogee / Perigee N/A
Velocity 7.66 km/s
Sub-Earth Point 54.68°N, 148.94°W
Launch Date Aug 22, 2026
Age 29 days
Type internet

Technical Details

Classification Payload
Mass 575.00 kg
Dry Mass 530.00 kg
Length 0.30 m
Span 29.00 m
Shape ? Box
Manufacturer SPXS
Bus Type Starlink V2MO
Phase Status In Orbit
Owner/State SPXS/US

Most Searched